| time (UTC) | temp C | wind direction | speed KPH | gust KPH | rain 1hr cm | rain 24hr cm | rain mn cm | humidity % | barometer mb |
| 20260504235102 | 20 | 270 | 8.0 | 11.3 | 0.00 | 0.00 | 0.00 | 35 | 1004.1 |
| 20260504234002 | 20 | 203 | 14.5 | 14.5 | 0.00 | 0.00 | 0.00 | 34 | 1003.7 |
| 20260504231802 | 22 | 180 | 14.5 | 14.5 | 0.00 | 0.00 | 0.00 | 30 | 1003.4 |
| 20260504230701 | 22 | 135 | 14.5 | 14.5 | 0.00 | 0.00 | 0.00 | 30 | 1003.4 |
| 20260504225603 | 23 | 113 | 11.3 | 11.3 | 0.00 | 0.00 | 0.00 | 30 | 1003.0 |
| 20260504224402 | 23 | 203 | 14.5 | 14.5 | 0.00 | 0.00 | 0.00 | 30 | 1003.0 |
| 20260504223302 | 24 | 180 | 8.0 | 16.1 | 0.00 | 0.00 | 0.00 | 29 | 1002.7 |
| 20260504221102 | 25 | 180 | 9.7 | 14.5 | 0.00 | 0.00 | 0.00 | 29 | 1002.4 |
| 20260504220003 | 25 | 180 | 6.4 | 8.0 | 0.00 | 0.00 | 0.00 | 27 | 1001.7 |
| 20260504213802 | 26 | 203 | 4.8 | 14.5 | 0.00 | 0.00 | 0.00 | 27 | 1001.7 |
| 20260504212702 | 26 | 113 | 4.8 | 19.3 | 0.00 | 0.00 | 0.00 | 27 | 1001.7 |
| 20260504211602 | 26 | 135 | 6.4 | 11.3 | 0.00 | 0.00 | 0.00 | 30 | 1001.4 |
| 20260504210502 | 26 | 158 | 8.0 | 17.7 | 0.00 | 0.00 | 0.00 | 30 | 1001.4 |
| 20260504205402 | 26 | 180 | 8.0 | 9.7 | 0.00 | 0.00 | 0.00 | 31 | 1001.4 |
| 20260504204202 | 26 | 158 | 6.4 | 12.9 | 0.00 | 0.00 | 0.00 | 32 | 1001.4 |
| 20260504203102 | 26 | 180 | 6.4 | 11.3 | 0.00 | 0.00 | 0.00 | 34 | 1001.4 |
| 20260504202003 | 26 | 270 | 4.8 | 12.9 | 0.00 | 0.00 | 0.00 | 35 | 1001.4 |
| 20260504200902 | 26 | 203 | 11.3 | 11.3 | 0.00 | 0.00 | 0.00 | 35 | 1001.4 |
| 20260504193602 | 26 | 180 | 4.8 | 17.7 | 0.00 | 0.00 | 0.00 | 35 | 1001.0 |
| 20260504192502 | 26 | 203 | 8.0 | 14.5 | 0.00 | 0.00 | 0.00 | 35 | 1001.0 |
| 20260504191302 | 26 | 180 | 11.3 | 11.3 | 0.00 | 0.00 | 0.00 | 35 | 1001.0 |
| 20260504190202 | 26 | 180 | 14.5 | 14.5 | 0.00 | 0.00 | 0.00 | 35 | 1001.0 |
| 20260504185003 | 26 | 68 | 9.7 | 11.3 | 0.00 | 0.00 | 0.00 | 32 | 1000.7 |
| 20260504183902 | 26 | 113 | 4.8 | 9.7 | 0.00 | 0.00 | 0.00 | 34 | 1000.3 |
| 20260504182702 | 26 | 135 | 6.4 | 12.9 | 0.00 | 0.00 | 0.00 | 32 | 1000.7 |
| 20260504181503 | 26 | 180 | 11.3 | 11.3 | 0.00 | 0.00 | 0.00 | 32 | 1000.7 |
| 20260504180502 | 27 | 203 | 4.8 | 9.7 | 0.00 | 0.00 | 0.00 | 31 | 1000.7 |
| 20260504175403 | 26 | 315 | 6.4 | 9.7 | 0.00 | 0.00 | 0.00 | 31 | 1001.0 |
| 20260504174203 | 26 | 338 | 3.2 | 8.0 | 0.00 | 0.00 | 0.00 | 34 | 1001.0 |
| 20260504173202 | 26 | 248 | 6.4 | 11.3 | 0.00 | 0.00 | 0.00 | 34 | 1000.7 |
| 20260504160402 | 22 | 113 | 6.4 | 9.7 | 0.00 | 0.00 | 0.00 | 43 | 1001.0 |
| 20260504150802 | 20 | 23 | 6.4 | 9.7 | 0.00 | 0.00 | 0.00 | 45 | 1001.0 |
| 20260504141103 | 16 | 338 | 3.2 | 4.8 | 0.00 | 0.00 | 0.00 | 55 | 1001.4 |
| 20260504130502 | 12 | 68 | 3.2 | 3.2 | 0.00 | 0.00 | 0.00 | 65 | 1001.7 |
| 20260504080802 | 10 | 158 | 0.0 | 0.0 | 0.00 | 0.00 | 0.00 | 74 | 1002.7 |
| 20260504050202 | 13 | 158 | 0.0 | 0.0 | 0.00 | 0.00 | 0.00 | 55 | 1005.1 |
| 20260504045102 | 14 | 158 | 0.0 | 0.0 | 0.00 | 0.00 | 0.00 | 50 | 1005.4 |
| 20260504044002 | 14 | 158 | 0.0 | 0.0 | 0.00 | 0.00 | 0.00 | 53 | 1005.4 |
| 20260504041701 | 14 | 158 | 0.0 | 0.0 | 0.00 | 0.00 | 0.00 | 51 | 1005.8 |
| 20260504040602 | 15 | 158 | 0.0 | 0.0 | 0.00 | 0.00 | 0.00 | 54 | 1005.4 |
| 20260504035304 | 15 | 158 | 0.0 | 0.0 | 0.00 | 0.00 | 0.00 | 50 | 1005.8 |
| 20260504034203 | 16 | 158 | 0.0 | 0.0 | 0.00 | 0.00 | 0.00 | 50 | 1005.8 |
| 20260504032502 | 16 | 158 | 0.0 | 0.0 | 0.00 | 0.00 | 0.00 | 48 | 1006.4 |
| 20260504031102 | 16 | 158 | 0.0 | 0.0 | 0.00 | 0.00 | 0.00 | 46 | 1006.1 |
| 20260504025304 | 16 | 158 | 0.0 | 0.0 | 0.00 | 0.00 | 0.00 | 46 | 1006.4 |
| 20260504023803 | 16 | 158 | 0.0 | 0.0 | 0.00 | 0.00 | 0.00 | 46 | 1006.4 |
| 20260504022801 | 17 | 158 | 0.0 | 0.0 | 0.00 | 0.00 | 0.00 | 46 | 1006.4 |
| 20260504021603 | 17 | 158 | 0.0 | 0.0 | 0.00 | 0.00 | 0.00 | 45 | 1006.4 |
| 20260504020402 | 17 | 158 | 0.0 | 0.0 | 0.00 | 0.00 | 0.00 | 41 | 1006.4 |
| 20260504015402 | 18 | 158 | 0.0 | 0.0 | 0.00 | 0.00 | 0.00 | 40 | 1006.4 |
| 20260504014302 | 18 | 158 | 0.0 | 0.0 | 0.00 | 0.00 | 0.00 | 40 | 1006.8 |
| 20260504012102 | 20 | 158 | 0.0 | 0.0 | 0.00 | 0.00 | 0.00 | 37 | 1006.8 |
| 20260504005802 | 21 | 45 | 0.0 | 0.0 | 0.00 | 0.00 | 0.00 | 35 | 1006.8 |
| 20260504004702 | 21 | 158 | 0.0 | 0.0 | 0.00 | 0.00 | 0.00 | 34 | 1006.4 |
| 20260504003602 | 22 | 270 | 1.6 | 1.6 | 0.00 | 0.00 | 0.00 | 34 | 1006.8 |
| 20260504001402 | 23 | 180 | 1.6 | 4.8 | 0.00 | 0.00 | 0.00 | 30 | 1006.8 |